Location: Bastrop State Park
(30.1090°N, 97.2819°W)
Time: 20:24:07
(UTC-05:00)

ISS - Visible Passes

Search period start: 01 May 2016 00:00
Search period end: 11 May 2016 00:00
Orbit: 402 x 405 km, 51.6° (Epoch: 01 May)

Date Brightness Start Highest point End Pass type
(mag) Time Alt. Az. Time Alt. Az. Time Alt. Az.
03 May -0.6 06:14:23 10° SSE 06:16:27 16° SE 06:18:32 10° E visible
05 May -2.5 06:04:34 10° SSW 06:07:43 48° SE 06:10:52 10° NE visible
06 May -1.2 05:13:57 16° SSE 05:15:19 20° SE 05:17:49 10° ENE visible
07 May -2.9 05:56:27 14° WSW 05:59:03 49° NW 06:02:14 10° NNE visible
08 May -3.3 05:06:12 60° S 05:06:32 66° SE 05:09:47 10° NE visible
09 May -0.5 04:15:51 17° E 04:15:51 17° E 04:16:54 10° ENE visible
09 May -1.4 05:48:30 12° W 05:50:31 19° NW 05:52:58 10° N visible
10 May -2.4 04:58:03 37° NNW 04:58:03 37° NNW 05:00:56 10° NNE visible
